FDX745 KMEM-KEWR

Flight info

Callsign FDX745
Flight time 1h 56m
Altitude 33000
Route GOETZ7 DIYAB HITMN Q34 GVE PHLBO4
Aircraft B77L/H-SDE1E2E3FGHIJ2J3J4J5M1RWXY/LB1D1

Departure

Time 2026-05-04 00:46
Airport Memphis International Airport (KMEM)

Arrival

Time 2026-05-04 02:42
Airport Newark Liberty International Airport (KEWR)
Time Latitude Longitude Altitude Speed Heading
2026-05-04 00:19 35.06021 -89.97193 335 ft 0 kts
2026-05-04 00:37 35.05997 -89.97193 330 ft 4 kts
2026-05-04 00:37 35.05970 -89.97194 330 ft 4 kts
2026-05-04 00:38 35.05948 -89.97195 331 ft 4 kts 347°
2026-05-04 00:38 35.05934 -89.97180 329 ft 4 kts 275°
2026-05-04 00:38 35.05932 -89.97149 330 ft 4 kts 272°
2026-05-04 00:38 35.05932 -89.97140 334 ft 0 kts 272°
2026-05-04 00:42 35.05932 -89.97148 334 ft 2 kts 272°
2026-05-04 00:42 35.05933 -89.97175 334 ft 4 kts 272°
2026-05-04 00:42 35.05934 -89.97222 332 ft 7 kts 271°
2026-05-04 00:42 35.05936 -89.97285 331 ft 8 kts 272°
2026-05-04 00:43 35.05938 -89.97375 331 ft 12 kts 272°
2026-05-04 00:43 35.05930 -89.97472 333 ft 12 kts 237°
2026-05-04 00:43 35.05855 -89.97490 332 ft 12 kts 170°
2026-05-04 00:43 35.05775 -89.97485 330 ft 12 kts 180°
2026-05-04 00:44 35.05694 -89.97488 331 ft 12 kts 181°
2026-05-04 00:44 35.05613 -89.97488 332 ft 12 kts 178°
2026-05-04 00:44 35.05532 -89.97490 334 ft 12 kts 190°
2026-05-04 00:44 35.05464 -89.97546 331 ft 13 kts 225°
2026-05-04 00:45 35.05392 -89.97609 326 ft 15 kts 192°
2026-05-04 00:45 35.05147 -89.97612 324 ft 66 kts 178°
2026-05-04 00:45 35.04474 -89.97598 327 ft 128 kts 179°
2026-05-04 00:45 35.03408 -89.97582 367 ft 172 kts 180°
2026-05-04 00:46 35.02181 -89.97528 772 ft 180 kts 178°
2026-05-04 00:46 35.00944 -89.97426 1443 ft 177 kts 179°
2026-05-04 00:46 34.99721 -89.97345 2087 ft 177 kts 180°
2026-05-04 00:46 34.98434 -89.97264 2345 ft 196 kts 172°
2026-05-04 00:47 34.97067 -89.96672 2531 ft 220 kts 159°
2026-05-04 00:47 34.95587 -89.95872 2769 ft 245 kts 159°
2026-05-04 00:47 34.94027 -89.94901 3194 ft 261 kts 146°
2026-05-04 00:47 34.92870 -89.93120 3709 ft 280 kts 112°
2026-05-04 00:48 34.92605 -89.90757 4358 ft 285 kts 89°
2026-05-04 00:48 34.92680 -89.88305 5019 ft 291 kts 87°
2026-05-04 00:48 34.92691 -89.85825 5772 ft 293 kts 89°
2026-05-04 00:48 34.92921 -89.83383 6544 ft 291 kts 71°
2026-05-04 00:49 34.93824 -89.81221 7267 ft 285 kts 53°
2026-05-04 00:49 34.94945 -89.79211 7942 ft 289 kts 56°
2026-05-04 00:49 34.95657 -89.77782 8336 ft 293 kts 58°
2026-05-04 00:49 34.96669 -89.75625 9085 ft 294 kts 58°
2026-05-04 00:50 34.97678 -89.73452 9923 ft 293 kts 58°
2026-05-04 00:50 34.98686 -89.71286 10605 ft 298 kts 58°
2026-05-04 00:50 34.99738 -89.69036 10828 ft 322 kts 58°
2026-05-04 00:50 35.00889 -89.66580 11027 ft 346 kts 58°
2026-05-04 00:51 35.02126 -89.63945 11239 ft 369 kts 58°
2026-05-04 00:51 35.03422 -89.61180 11823 ft 380 kts 58°
2026-05-04 00:51 35.04748 -89.58345 12576 ft 387 kts 58°
2026-05-04 00:51 35.06093 -89.55470 13473 ft 392 kts 58°
2026-05-04 00:52 35.07451 -89.52566 14288 ft 396 kts 58°
2026-05-04 00:52 35.08827 -89.49623 15067 ft 401 kts 57°
2026-05-04 00:52 35.10217 -89.46648 15831 ft 406 kts 57°
2026-05-04 00:52 35.11623 -89.43638 16594 ft 410 kts 57°
2026-05-04 00:53 35.13048 -89.40584 17356 ft 415 kts 57°
2026-05-04 00:53 35.14482 -89.37507 17961 ft 419 kts 56°
2026-05-04 00:53 35.15931 -89.34397 18488 ft 423 kts 56°
2026-05-04 00:53 35.17393 -89.31253 18958 ft 428 kts 56°
2026-05-04 00:54 35.18870 -89.28077 19456 ft 431 kts 56°
2026-05-04 00:54 35.20356 -89.24877 19950 ft 434 kts 56°
2026-05-04 00:54 35.21807 -89.21647 20434 ft 438 kts 61°
2026-05-04 00:54 35.22884 -89.18116 20792 ft 448 kts 70°
2026-05-04 00:55 35.23742 -89.14429 21234 ft 453 kts 71°
2026-05-04 00:55 35.24599 -89.10707 21728 ft 455 kts 70°
2026-05-04 00:55 35.25671 -89.07062 22133 ft 456 kts 63°
2026-05-04 00:55 35.26991 -89.03524 22560 ft 459 kts 60°
2026-05-04 00:56 35.28415 -89.00016 22992 ft 462 kts 59°
2026-05-04 00:56 35.29863 -88.96496 23441 ft 465 kts 59°
2026-05-04 00:56 35.31287 -88.92982 23819 ft 468 kts 60°
2026-05-04 00:56 35.32713 -88.89380 24188 ft 472 kts 60°
2026-05-04 00:57 35.34123 -88.85742 24565 ft 474 kts 60°
2026-05-04 00:57 35.35525 -88.82074 24948 ft 477 kts 60°
2026-05-04 00:57 35.36924 -88.78378 25298 ft 480 kts 60°
2026-05-04 00:57 35.38328 -88.74655 25655 ft 482 kts 60°
2026-05-04 00:58 35.39737 -88.70912 25990 ft 485 kts 60°
2026-05-04 00:58 35.41154 -88.67145 26332 ft 488 kts 60°
2026-05-04 00:58 35.42577 -88.63360 26674 ft 490 kts 60°
2026-05-04 00:58 35.44007 -88.59556 27008 ft 492 kts 60°
2026-05-04 00:59 35.45442 -88.55736 27336 ft 495 kts 60°
2026-05-04 00:59 35.46887 -88.51885 27645 ft 498 kts 60°
2026-05-04 00:59 35.48338 -88.48015 27950 ft 500 kts 60°
2026-05-04 00:59 35.49792 -88.44132 28273 ft 502 kts 60°
2026-05-04 01:00 35.51256 -88.40217 28514 ft 506 kts 60°
2026-05-04 01:00 35.52729 -88.36275 28769 ft 508 kts 60°
2026-05-04 01:00 35.54202 -88.32325 29048 ft 510 kts 60°
2026-05-04 01:00 35.55664 -88.28402 29286 ft 512 kts 60°
2026-05-04 01:01 35.57166 -88.24362 29563 ft 514 kts 60°
2026-05-04 01:01 35.58634 -88.20411 29793 ft 516 kts 60°
2026-05-04 01:01 35.60125 -88.16394 30051 ft 517 kts 60°
2026-05-04 01:01 35.61616 -88.12367 30349 ft 517 kts 60°
2026-05-04 01:02 35.63102 -88.08348 30684 ft 515 kts 60°
2026-05-04 01:02 35.64585 -88.04335 30967 ft 515 kts 60°
2026-05-04 01:02 35.66065 -88.00325 31262 ft 514 kts 60°
2026-05-04 01:02 35.67544 -87.96314 31541 ft 513 kts 60°
2026-05-04 01:03 35.69014 -87.92323 31829 ft 512 kts 59°
2026-05-04 01:03 35.70481 -87.88334 32119 ft 511 kts 59°
2026-05-04 01:03 35.71944 -87.84352 32401 ft 511 kts 59°
2026-05-04 01:03 35.73406 -87.80370 32683 ft 510 kts 59°
2026-05-04 01:04 35.74864 -87.76390 32922 ft 510 kts 59°
2026-05-04 01:04 35.77791 -87.68395 33085 ft 513 kts 59°
2026-05-04 01:05 35.80712 -87.60387 33082 ft 511 kts 59°
2026-05-04 01:05 35.83611 -87.52415 33088 ft 509 kts 59°
2026-05-04 01:06 35.86500 -87.44456 33083 ft 508 kts 59°
2026-05-04 01:06 35.89364 -87.36547 33085 ft 508 kts 59°
2026-05-04 01:07 35.92243 -87.28578 33100 ft 509 kts 59°
2026-05-04 01:07 35.95124 -87.20584 33091 ft 511 kts 60°
2026-05-04 01:08 35.98010 -87.12550 33078 ft 512 kts 60°
2026-05-04 01:08 36.00898 -87.04490 33063 ft 514 kts 60°
2026-05-04 01:09 36.03770 -86.96452 33059 ft 514 kts 60°
2026-05-04 01:09 36.06655 -86.88360 33050 ft 515 kts 60°
2026-05-04 01:10 36.09534 -86.80259 33078 ft 515 kts 60°
2026-05-04 01:10 36.12411 -86.72147 33073 ft 514 kts 60°
2026-05-04 01:11 36.15235 -86.64009 33074 ft 515 kts 62°
2026-05-04 01:11 36.17896 -86.55767 33079 ft 515 kts 63°
2026-05-04 01:12 36.20526 -86.47512 33106 ft 516 kts 63°
2026-05-04 01:12 36.23178 -86.39245 33083 ft 517 kts 63°
2026-05-04 01:13 36.25839 -86.30978 33080 ft 517 kts 63°
2026-05-04 01:13 36.28504 -86.22687 33102 ft 518 kts 63°
2026-05-04 01:14 36.31163 -86.14383 33083 ft 518 kts 63°
2026-05-04 01:14 36.33802 -86.06118 33093 ft 519 kts 63°
2026-05-04 01:15 36.36455 -85.97780 33098 ft 520 kts 63°
2026-05-04 01:15 36.39105 -85.89430 33080 ft 520 kts 63°
2026-05-04 01:16 36.41747 -85.81080 33083 ft 520 kts 63°
2026-05-04 01:16 36.44397 -85.72686 33419 ft 524 kts 63°
2026-05-04 01:16 36.45726 -85.68463 33880 ft 522 kts 63°
2026-05-04 01:17 36.47042 -85.64272 34343 ft 519 kts 63°
2026-05-04 01:17 36.48349 -85.60104 34716 ft 517 kts 63°
2026-05-04 01:17 36.49655 -85.55935 35013 ft 518 kts 63°
2026-05-04 01:18 36.52283 -85.47546 35088 ft 521 kts 63°
2026-05-04 01:18 36.54896 -85.39164 35083 ft 519 kts 64°
2026-05-04 01:19 36.57479 -85.30855 35090 ft 517 kts 64°
2026-05-04 01:19 36.60066 -85.22514 35094 ft 516 kts 64°
2026-05-04 01:20 36.62646 -85.14174 35098 ft 517 kts 64°
2026-05-04 01:20 36.65221 -85.05816 35131 ft 518 kts 64°
2026-05-04 01:21 36.67807 -84.97401 35096 ft 520 kts 64°
2026-05-04 01:21 36.70392 -84.88960 35102 ft 522 kts 64°
2026-05-04 01:22 36.72976 -84.80496 35097 ft 523 kts 64°
2026-05-04 01:22 36.75545 -84.72060 35090 ft 524 kts 64°
2026-05-04 01:23 36.78125 -84.63560 35090 ft 524 kts 65°
2026-05-04 01:23 36.80704 -84.55039 35099 ft 525 kts 65°
2026-05-04 01:24 36.83283 -84.46514 35076 ft 525 kts 65°
2026-05-04 01:24 36.85858 -84.37979 35074 ft 526 kts 65°
2026-05-04 01:25 36.88433 -84.29417 35082 ft 526 kts 65°
2026-05-04 01:25 36.91005 -84.20837 35069 ft 527 kts 65°
2026-05-04 01:26 36.93570 -84.12252 35084 ft 527 kts 65°
2026-05-04 01:26 36.96132 -84.03652 35060 ft 527 kts 65°
2026-05-04 01:27 36.98664 -83.95100 35080 ft 527 kts 65°
2026-05-04 01:27 37.01204 -83.86477 35057 ft 528 kts 66°
2026-05-04 01:28 37.03737 -83.77853 35074 ft 528 kts 66°
2026-05-04 01:28 37.06269 -83.69208 35062 ft 529 kts 66°
2026-05-04 01:29 37.08800 -83.60542 35065 ft 530 kts 66°
2026-05-04 01:29 37.11312 -83.51914 35068 ft 530 kts 66°
2026-05-04 01:30 37.13835 -83.43223 35056 ft 531 kts 66°
2026-05-04 01:30 37.16356 -83.34505 35068 ft 532 kts 66°
2026-05-04 01:31 37.18874 -83.25766 35062 ft 532 kts 66°
2026-05-04 01:31 37.21385 -83.17030 35072 ft 532 kts 66°
2026-05-04 01:32 37.23893 -83.08283 35060 ft 533 kts 67°
2026-05-04 01:32 37.26394 -82.99526 35062 ft 533 kts 67°
2026-05-04 01:33 37.28896 -82.90745 35066 ft 534 kts 67°
2026-05-04 01:33 37.31393 -82.81958 35067 ft 534 kts 67°
2026-05-04 01:34 37.33464 -82.74642 35059 ft 535 kts 67°
2026-05-04 01:34 37.35953 -82.65826 35063 ft 535 kts 67°
2026-05-04 01:35 37.38257 -82.57639 35071 ft 536 kts 68°
2026-05-04 01:35 37.40737 -82.48797 35052 ft 536 kts 68°
2026-05-04 01:36 37.43613 -82.38506 35043 ft 536 kts 68°
2026-05-04 01:36 37.45683 -82.31077 35048 ft 537 kts 68°
2026-05-04 01:37 37.48153 -82.22183 35047 ft 539 kts 68°
2026-05-04 01:37 37.50607 -82.13321 35046 ft 539 kts 68°
2026-05-04 01:38 37.53075 -82.04400 35048 ft 539 kts 68°
2026-05-04 01:38 37.55539 -81.95483 35054 ft 538 kts 68°
2026-05-04 01:39 37.57988 -81.86580 35057 ft 538 kts 68°
2026-05-04 01:39 37.60434 -81.77658 35059 ft 538 kts 68°
2026-05-04 01:40 37.62865 -81.68712 35056 ft 538 kts 68°
2026-05-04 01:40 37.65283 -81.59774 35059 ft 538 kts 69°
2026-05-04 01:41 37.67697 -81.50826 35073 ft 540 kts 68°
2026-05-04 01:41 37.70099 -81.41902 35063 ft 540 kts 68°
2026-05-04 01:42 37.72507 -81.32916 35071 ft 540 kts 68°
2026-05-04 01:42 37.74906 -81.23934 35074 ft 539 kts 69°
2026-05-04 01:43 37.77239 -81.14903 35068 ft 541 kts 73°
2026-05-04 01:43 37.78592 -81.05537 35072 ft 543 kts 84°
2026-05-04 01:44 37.79156 -80.96011 35083 ft 544 kts 85°
2026-05-04 01:44 37.79725 -80.86470 35066 ft 544 kts 85°
2026-05-04 01:45 37.80342 -80.76926 35084 ft 544 kts 85°
2026-05-04 01:45 37.81272 -80.62657 35080 ft 545 kts 85°
2026-05-04 01:46 37.81881 -80.53078 35074 ft 547 kts 85°
2026-05-04 01:46 37.82485 -80.43478 35075 ft 547 kts 85°
2026-05-04 01:47 37.83087 -80.33884 35074 ft 547 kts 85°
2026-05-04 01:47 37.83684 -80.24288 35076 ft 547 kts 85°
2026-05-04 01:48 37.84273 -80.14715 35073 ft 547 kts 85°
2026-05-04 01:48 37.84853 -80.05132 35077 ft 546 kts 85°
2026-05-04 01:49 37.85425 -79.95544 35075 ft 547 kts 85°
2026-05-04 01:49 37.85987 -79.85998 35056 ft 548 kts 85°
2026-05-04 01:50 37.86547 -79.76378 35064 ft 548 kts 86°
2026-05-04 01:50 37.87004 -79.66726 35023 ft 549 kts 88°
2026-05-04 01:51 37.87273 -79.57055 34998 ft 550 kts 89°
2026-05-04 01:51 37.87551 -79.47373 35003 ft 550 kts 88°
2026-05-04 01:52 37.87858 -79.37683 34991 ft 551 kts 88°
2026-05-04 01:52 37.88480 -79.28019 35019 ft 551 kts 81°
2026-05-04 01:53 37.89652 -79.18432 35043 ft 551 kts 81°
2026-05-04 01:53 37.90843 -79.08831 35052 ft 552 kts 81°
2026-05-04 01:54 37.91980 -78.99215 35052 ft 552 kts 82°
2026-05-04 01:54 37.93090 -78.89583 35047 ft 553 kts 82°
2026-05-04 01:55 37.94185 -78.79998 35033 ft 553 kts 82°
2026-05-04 01:55 37.95283 -78.70352 35050 ft 553 kts 82°
2026-05-04 01:56 37.96375 -78.60700 35025 ft 553 kts 82°
2026-05-04 01:56 37.97459 -78.51045 35035 ft 553 kts 82°
2026-05-04 01:57 37.98537 -78.41378 35031 ft 554 kts 82°
2026-05-04 01:57 37.99455 -78.33070 35031 ft 553 kts 82°
2026-05-04 01:58 38.00518 -78.23394 35045 ft 553 kts 82°
2026-05-04 01:58 38.02022 -78.13869 35041 ft 549 kts 64°
2026-05-04 01:59 38.03857 -78.09684 35075 ft 539 kts 52°
2026-05-04 01:59 38.05953 -78.05734 35090 ft 541 kts 52°
2026-05-04 01:59 38.10123 -77.97732 35073 ft 544 kts 53°
2026-05-04 02:00 38.14207 -77.89599 35061 ft 548 kts 53°
2026-05-04 02:00 38.18234 -77.81432 35062 ft 550 kts 54°
2026-05-04 02:01 38.22302 -77.73151 35057 ft 552 kts 54°
2026-05-04 02:01 38.25518 -77.66604 35091 ft 553 kts 54°
2026-05-04 02:02 38.29597 -77.58295 35052 ft 553 kts 54°
2026-05-04 02:02 38.33665 -77.49992 35064 ft 551 kts 54°
2026-05-04 02:03 38.37712 -77.41708 35047 ft 550 kts 54°
2026-05-04 02:03 38.41748 -77.33425 35050 ft 549 kts 54°
2026-05-04 02:04 38.45771 -77.25148 35062 ft 549 kts 54°
2026-05-04 02:04 38.49783 -77.16871 35055 ft 549 kts 54°
2026-05-04 02:05 38.53798 -77.08568 35054 ft 549 kts 54°
2026-05-04 02:05 38.57807 -77.00253 35053 ft 550 kts 54°
2026-05-04 02:06 38.61822 -76.91907 35094 ft 551 kts 54°
2026-05-04 02:06 38.65836 -76.83539 35063 ft 552 kts 54°
2026-05-04 02:07 38.69818 -76.75216 35057 ft 553 kts 54°
2026-05-04 02:07 38.73843 -76.66815 35055 ft 551 kts 52°
2026-05-04 02:08 38.76180 -76.63010 35027 ft 539 kts 36°
2026-05-04 02:08 38.79063 -76.60081 35070 ft 525 kts 27°
2026-05-04 02:08 38.85039 -76.54617 35063 ft 529 kts 28°
2026-05-04 02:09 38.90930 -76.48983 35061 ft 534 kts 30°
2026-05-04 02:09 38.96836 -76.43153 35035 ft 536 kts 30°
2026-05-04 02:10 38.99829 -76.40203 34281 ft 549 kts 30°
2026-05-04 02:10 39.02852 -76.37225 33418 ft 543 kts 31°
2026-05-04 02:10 39.05746 -76.34149 32474 ft 533 kts 34°
2026-05-04 02:10 39.07587 -76.32012 31913 ft 525 kts 36°
2026-05-04 02:11 39.11080 -76.27793 30758 ft 519 kts 36°
2026-05-04 02:11 39.13710 -76.24621 29954 ft 520 kts 36°
2026-05-04 02:11 39.16354 -76.21475 29292 ft 515 kts 35°
2026-05-04 02:11 39.18991 -76.18374 28681 ft 510 kts 35°
2026-05-04 02:12 39.21604 -76.15323 28092 ft 504 kts 35°
2026-05-04 02:12 39.24193 -76.12301 27506 ft 500 kts 35°
2026-05-04 02:12 39.26759 -76.09295 26933 ft 495 kts 35°
2026-05-04 02:12 39.29287 -76.06324 26522 ft 488 kts 35°
2026-05-04 02:13 39.31788 -76.03382 26107 ft 484 kts 35°
2026-05-04 02:13 39.34278 -76.00454 25698 ft 484 kts 35°
2026-05-04 02:13 39.36772 -75.97520 25292 ft 485 kts 35°
2026-05-04 02:13 39.39266 -75.94583 24854 ft 483 kts 35°
2026-05-04 02:14 39.41738 -75.91664 24475 ft 479 kts 36°
2026-05-04 02:14 39.44189 -75.88767 24063 ft 476 kts 36°
2026-05-04 02:14 39.46623 -75.85887 23644 ft 472 kts 36°
2026-05-04 02:14 39.49003 -75.83068 23183 ft 468 kts 36°
2026-05-04 02:15 39.51381 -75.80250 22733 ft 463 kts 36°
2026-05-04 02:15 39.53739 -75.77453 22348 ft 457 kts 36°
2026-05-04 02:15 39.56072 -75.74682 21961 ft 452 kts 36°
2026-05-04 02:15 39.58380 -75.71941 21580 ft 448 kts 36°
2026-05-04 02:16 39.60666 -75.69225 21213 ft 443 kts 36°
2026-05-04 02:16 39.62928 -75.66533 20822 ft 440 kts 37°
2026-05-04 02:16 39.65178 -75.63854 20450 ft 436 kts 37°
2026-05-04 02:16 39.67405 -75.61198 20080 ft 433 kts 37°
2026-05-04 02:17 39.69615 -75.58554 19660 ft 432 kts 37°
2026-05-04 02:17 39.71816 -75.55910 19226 ft 431 kts 37°
2026-05-04 02:17 39.74009 -75.53266 18794 ft 429 kts 38°
2026-05-04 02:17 39.76192 -75.50633 18368 ft 427 kts 38°
2026-05-04 02:18 39.78364 -75.48010 17881 ft 424 kts 38°
2026-05-04 02:18 39.80512 -75.45414 17399 ft 419 kts 38°
2026-05-04 02:18 39.82635 -75.42846 16968 ft 413 kts 38°
2026-05-04 02:18 39.84725 -75.40317 16568 ft 408 kts 38°
2026-05-04 02:19 39.86794 -75.37812 16149 ft 404 kts 38°
2026-05-04 02:19 39.88842 -75.35332 15755 ft 400 kts 38°
2026-05-04 02:19 39.90873 -75.32871 15351 ft 396 kts 38°
2026-05-04 02:19 39.92882 -75.30435 14972 ft 393 kts 39°
2026-05-04 02:20 39.94857 -75.28036 14602 ft 391 kts 39°
2026-05-04 02:20 39.96848 -75.25617 14219 ft 391 kts 39°
2026-05-04 02:20 39.98840 -75.23196 13815 ft 392 kts 39°
2026-05-04 02:20 40.00826 -75.20777 13363 ft 390 kts 40°
2026-05-04 02:21 40.02141 -75.19174 13098 ft 388 kts 40°
2026-05-04 02:21 40.04100 -75.16783 12683 ft 385 kts 40°
2026-05-04 02:21 40.06047 -75.14406 12296 ft 381 kts 40°
2026-05-04 02:21 40.07970 -75.12057 11926 ft 375 kts 39°
2026-05-04 02:22 40.09873 -75.09730 11547 ft 368 kts 39°
2026-05-04 02:22 40.11722 -75.07467 11180 ft 360 kts 39°
2026-05-04 02:22 40.13533 -75.05250 10857 ft 353 kts 39°
2026-05-04 02:22 40.15304 -75.03078 10532 ft 345 kts 39°
2026-05-04 02:23 40.17013 -75.00982 10218 ft 338 kts 39°
2026-05-04 02:23 40.18714 -74.98895 9910 ft 330 kts 39°
2026-05-04 02:23 40.20357 -74.96876 9743 ft 319 kts 38°
2026-05-04 02:23 40.21939 -74.94932 9634 ft 306 kts 38°
2026-05-04 02:24 40.23456 -74.93065 9520 ft 293 kts 38°
2026-05-04 02:24 40.24903 -74.91282 9362 ft 279 kts 38°
2026-05-04 02:24 40.26275 -74.89517 9072 ft 275 kts 41°
2026-05-04 02:24 40.27565 -74.87701 8793 ft 271 kts 42°
2026-05-04 02:25 40.28842 -74.85887 8449 ft 270 kts 42°
2026-05-04 02:25 40.30118 -74.84078 8103 ft 274 kts 41°
2026-05-04 02:25 40.31408 -74.82258 7982 ft 270 kts 41°
2026-05-04 02:25 40.32681 -74.80465 7787 ft 267 kts 41°
2026-05-04 02:26 40.33955 -74.78673 7675 ft 270 kts 41°
2026-05-04 02:26 40.35251 -74.76852 7606 ft 276 kts 41°
2026-05-04 02:26 40.36559 -74.75011 7485 ft 275 kts 41°
2026-05-04 02:26 40.37850 -74.73191 7384 ft 271 kts 41°
2026-05-04 02:27 40.39126 -74.71391 7276 ft 268 kts 41°
2026-05-04 02:27 40.40399 -74.69598 7190 ft 269 kts 41°
2026-05-04 02:27 40.41665 -74.67836 7104 ft 265 kts 37°
2026-05-04 02:27 40.43197 -74.66685 7002 ft 250 kts
2026-05-04 02:28 40.44906 -74.66259 6940 ft 254 kts
2026-05-04 02:28 40.46661 -74.65796 6847 ft 258 kts
2026-05-04 02:28 40.48417 -74.65320 6760 ft 256 kts
2026-05-04 02:28 40.50156 -74.64851 6673 ft 254 kts
2026-05-04 02:29 40.51879 -74.64388 6580 ft 252 kts
2026-05-04 02:29 40.53592 -74.63929 6506 ft 250 kts
2026-05-04 02:29 40.55293 -74.63474 6427 ft 249 kts
2026-05-04 02:29 40.56984 -74.63022 6343 ft 248 kts
2026-05-04 02:30 40.58676 -74.62569 6262 ft 248 kts
2026-05-04 02:30 40.60314 -74.61835 6036 ft 258 kts 30°
2026-05-04 02:30 40.61608 -74.60154 5964 ft 266 kts 43°
2026-05-04 02:30 40.62851 -74.58349 5822 ft 270 kts 41°
2026-05-04 02:31 40.64136 -74.56532 5522 ft 270 kts 41°
2026-05-04 02:31 40.65414 -74.54741 5221 ft 266 kts 41°
2026-05-04 02:31 40.66679 -74.52977 4865 ft 264 kts 41°
2026-05-04 02:31 40.67946 -74.51221 4422 ft 265 kts 41°
2026-05-04 02:32 40.69194 -74.49495 4379 ft 254 kts 41°
2026-05-04 02:32 40.70426 -74.47796 4430 ft 260 kts 41°
2026-05-04 02:32 40.71702 -74.46046 4475 ft 268 kts 41°
2026-05-04 02:32 40.73004 -74.44257 4473 ft 271 kts 40°
2026-05-04 02:33 40.74299 -74.42472 4460 ft 268 kts 40°
2026-05-04 02:33 40.75580 -74.40707 4467 ft 265 kts 40°
2026-05-04 02:33 40.76849 -74.38960 4457 ft 263 kts 40°
2026-05-04 02:33 40.78111 -74.37222 4462 ft 264 kts 40°
2026-05-04 02:34 40.79376 -74.35481 4506 ft 269 kts 40°
2026-05-04 02:34 40.80668 -74.33702 4472 ft 267 kts 40°
2026-05-04 02:34 40.81950 -74.31932 4468 ft 265 kts 40°
2026-05-04 02:34 40.83223 -74.30174 4471 ft 264 kts 40°
2026-05-04 02:35 40.84486 -74.28430 4463 ft 263 kts 40°
2026-05-04 02:35 40.85772 -74.26658 4206 ft 271 kts 40°
2026-05-04 02:35 40.87074 -74.24860 3992 ft 268 kts 41°
2026-05-04 02:35 40.88342 -74.23102 3895 ft 260 kts 40°
2026-05-04 02:36 40.89589 -74.21376 3814 ft 259 kts 40°
2026-05-04 02:36 40.90841 -74.19646 3721 ft 266 kts 41°
2026-05-04 02:36 40.91836 -74.17544 3596 ft 280 kts 71°
2026-05-04 02:36 40.91876 -74.15011 3498 ft 275 kts 107°
2026-05-04 02:37 40.90953 -74.12911 3388 ft 258 kts 142°
2026-05-04 02:37 40.89509 -74.11630 3327 ft 249 kts 156°
2026-05-04 02:37 40.88013 -74.10522 3231 ft 243 kts 156°
2026-05-04 02:37 40.86568 -74.09435 3194 ft 237 kts 155°
2026-05-04 02:38 40.85126 -74.08364 3088 ft 236 kts 158°
2026-05-04 02:38 40.83607 -74.07858 2901 ft 221 kts 191°
2026-05-04 02:38 40.82194 -74.08370 2646 ft 211 kts 207°
2026-05-04 02:38 40.80822 -74.09104 2392 ft 210 kts 210°
2026-05-04 02:39 40.79538 -74.09900 2152 ft 201 kts 212°
2026-05-04 02:39 40.78302 -74.10694 1891 ft 192 kts 212°
2026-05-04 02:39 40.77164 -74.11422 1660 ft 173 kts 211°
2026-05-04 02:39 40.76144 -74.12072 1446 ft 152 kts 212°
2026-05-04 02:40 40.75233 -74.12660 1221 ft 143 kts 211°
2026-05-04 02:40 40.74334 -74.13235 1022 ft 145 kts 210°
2026-05-04 02:40 40.73430 -74.13811 815 ft 146 kts 208°
2026-05-04 02:40 40.72517 -74.14390 615 ft 147 kts 207°
2026-05-04 02:41 40.71607 -74.14970 417 ft 144 kts 207°
2026-05-04 02:41 40.70719 -74.15535 257 ft 141 kts 207°
2026-05-04 02:41 40.69836 -74.16102 84 ft 142 kts 206°
2026-05-04 02:41 40.68974 -74.16655 27 ft 127 kts 205°
2026-05-04 02:42 40.68352 -74.17050 27 ft 67 kts 206°
2026-05-04 02:42 40.68095 -74.17214 29 ft 35 kts 207°
2026-05-04 02:42 40.67971 -74.17380 31 ft 18 kts 248°
2026-05-04 02:42 40.67956 -74.17498 30 ft 5 kts 271°
2026-05-04 02:43 40.67959 -74.17536 30 ft 5 kts 279°
2026-05-04 02:43 40.67972 -74.17593 29 ft 9 kts 289°
2026-05-04 02:43 40.67997 -74.17670 25 ft 9 kts 294°
2026-05-04 02:43 40.68023 -74.17745 26 ft 9 kts 294°
2026-05-04 02:44 40.68051 -74.17821 26 ft 9 kts 297°
2026-05-04 02:44 40.68041 -74.17898 27 ft 9 kts 225°
2026-05-04 02:44 40.67986 -74.17939 27 ft 9 kts 207°
2026-05-04 02:44 40.67929 -74.17977 27 ft 9 kts 206°
2026-05-04 02:45 40.67871 -74.18014 27 ft 9 kts 205°
2026-05-04 02:45 40.67814 -74.18050 27 ft 9 kts 206°
2026-05-04 02:45 40.67757 -74.18089 27 ft 9 kts 207°
2026-05-04 02:45 40.67703 -74.18132 27 ft 9 kts 230°
2026-05-04 02:46 40.67710 -74.18213 27 ft 9 kts 287°
2026-05-04 02:46 40.67681 -74.18279 27 ft 7 kts 213°
2026-05-04 02:46 40.67666 -74.18291 27 ft 1 kts 210°
2026-05-04 02:46 40.67659 -74.18295 27 ft 1 kts 206°
2026-05-04 02:47 40.67657 -74.18297 27 ft 0 kts 206°